Powrót do katalogu

SL-16 DEB

AktywnyLEO
NORAD 22445·DEBRIS·🇷🇺 Russia

Wystrzelony Dec 25, 1992 z Baikonur Cosmodrome

Loading…

Następne Przeloty (najbliższe 24 godziny)

TLE

ŚwieżeSource: Space-Track

Epoka: Sep 14, 2026, 04:28 UTC

1 22445U 92093EN  26257.18619192  .00000736  00000-0  38817-3 0  9995
2 22445  71.2878 178.6274 0073444  43.2443 317.4415 14.15632716730998

Śledź SL-16 DEB w czasie rzeczywistym z AllMySat

Download on the App Store